Location: Kergrach
(48.3833°N, 4.5167°W)
Time: 09:30:46
(UTC+00:00)

Helios 1A Rocket - Pass Details

Date: 18 February 2020
Orbit: 563 x 588 km, 98.3° (Epoch: 04 April)

Event Time Altitude Azimuth Distance (km) Brightness Sun altitude
Rises 06:06:41 0° 18° (NNE) 2,831 6.6 -13.0°
Reaches altitude 10° 06:08:55 10° 24° (NNE) 1,923 5.8 -12.6°
Maximum altitude 06:12:59 51° 101° (E) 741 3.9 -11.9°
Drops below altitude 10° 06:17:00 10° 178° (S) 1,898 5.7 -11.3°
Sets 06:19:11 0° 183° (S) 2,789 6.5 -10.9°
